UAL1180 KDEN-KCOS

Flight info

Callsign UAL1180
Flight time 0h 16m
Altitude 17000
Route LUFSE V389 ADANE/N0369F160 BRK
Aircraft A320/M-SDE3FGHIRWY/LB1

Departure

Time 2026-04-24 22:04
Airport Denver International Airport (KDEN)

Arrival

Time 2026-04-24 22:20
Airport City of Colorado Springs Municipal Airport (KCOS)
Time Latitude Longitude Altitude Speed Heading
2026-04-24 21:44 39.85934 -104.68099 5380 ft 0 kts 180°
2026-04-24 21:53 39.85953 -104.68099 5378 ft 6 kts 180°
2026-04-24 21:54 39.85975 -104.68100 5376 ft 6 kts 171°
2026-04-24 21:54 39.85996 -104.68107 5377 ft 7 kts 154°
2026-04-24 21:54 39.86013 -104.68122 5377 ft 6 kts 117°
2026-04-24 21:54 39.86017 -104.68139 5378 ft 5 kts 91°
2026-04-24 21:55 39.86017 -104.68142 5378 ft 27 kts 91°
2026-04-24 21:58 39.86017 -104.68113 5379 ft 8 kts 91°
2026-04-24 21:58 39.86015 -104.67983 5380 ft 20 kts 91°
2026-04-24 21:59 39.86014 -104.67749 5380 ft 31 kts 89°
2026-04-24 21:59 39.86017 -104.67431 5380 ft 37 kts 89°
2026-04-24 21:59 39.86021 -104.67097 5380 ft 37 kts 89°
2026-04-24 21:59 39.86026 -104.66762 5378 ft 35 kts 89°
2026-04-24 22:00 39.86012 -104.66505 5381 ft 23 kts 88°
2026-04-24 22:00 39.86015 -104.66401 5383 ft 10 kts 87°
2026-04-24 22:00 39.86018 -104.66314 5385 ft 9 kts 87°
2026-04-24 22:00 39.86051 -104.66239 5386 ft 14 kts 22°
2026-04-24 22:01 39.86194 -104.66229 5382 ft 27 kts
2026-04-24 22:01 39.86413 -104.66229 5382 ft 36 kts 359°
2026-04-24 22:01 39.86699 -104.66229 5375 ft 45 kts
2026-04-24 22:01 39.87020 -104.66220 5369 ft 46 kts
2026-04-24 22:02 39.87344 -104.66215 5363 ft 47 kts
2026-04-24 22:02 39.87645 -104.66213 5362 ft 20 kts
2026-04-24 22:02 39.87760 -104.66185 5360 ft 14 kts 58°
2026-04-24 22:02 39.87753 -104.66111 5359 ft 7 kts 91°
2026-04-24 22:03 39.87753 -104.65972 5357 ft 38 kts 91°
2026-04-24 22:03 39.87750 -104.65305 5352 ft 106 kts 90°
2026-04-24 22:03 39.87742 -104.64099 5332 ft 158 kts 90°
2026-04-24 22:03 39.87748 -104.62483 5422 ft 191 kts 88°
2026-04-24 22:04 39.87744 -104.60781 6142 ft 189 kts 88°
2026-04-24 22:04 39.87752 -104.59047 6739 ft 193 kts 88°
2026-04-24 22:04 39.87643 -104.57282 7209 ft 207 kts 107°
2026-04-24 22:04 39.86871 -104.55609 7500 ft 226 kts 134°
2026-04-24 22:05 39.85709 -104.54078 7716 ft 248 kts 140°
2026-04-24 22:05 39.84186 -104.52897 7951 ft 267 kts 163°
2026-04-24 22:05 39.82317 -104.52239 8272 ft 288 kts 171°
2026-04-24 22:05 39.80317 -104.51778 8930 ft 295 kts 173°
2026-04-24 22:06 39.78267 -104.51379 9679 ft 299 kts 174°
2026-04-24 22:06 39.76188 -104.50982 10419 ft 308 kts 175°
2026-04-24 22:06 39.73993 -104.50545 10656 ft 331 kts 174°
2026-04-24 22:06 39.71654 -104.50050 11004 ft 348 kts 173°
2026-04-24 22:07 39.69278 -104.49514 11616 ft 354 kts 173°
2026-04-24 22:07 39.66833 -104.48942 12334 ft 357 kts 173°
2026-04-24 22:07 39.64381 -104.48361 13027 ft 360 kts 174°
2026-04-24 22:07 39.61906 -104.47776 13707 ft 362 kts 174°
2026-04-24 22:08 39.59418 -104.47192 14327 ft 365 kts 174°
2026-04-24 22:08 39.56913 -104.46610 14952 ft 366 kts 174°
2026-04-24 22:08 39.54387 -104.46027 15535 ft 370 kts 173°
2026-04-24 22:08 39.51848 -104.45442 16137 ft 373 kts 173°
2026-04-24 22:09 39.49283 -104.44852 16692 ft 375 kts 174°
2026-04-24 22:09 39.46711 -104.44260 16878 ft 376 kts 173°
2026-04-24 22:09 39.44074 -104.43654 16912 ft 391 kts 173°
2026-04-24 22:09 39.41377 -104.43038 16905 ft 396 kts 173°
2026-04-24 22:10 39.38660 -104.42416 16901 ft 397 kts 174°
2026-04-24 22:10 39.35942 -104.41792 16901 ft 392 kts 173°
2026-04-24 22:10 39.33316 -104.41179 16880 ft 377 kts 173°
2026-04-24 22:10 39.30769 -104.40587 16177 ft 378 kts 173°
2026-04-24 22:11 39.28167 -104.39988 15493 ft 379 kts 174°
2026-04-24 22:11 39.25569 -104.39463 14918 ft 373 kts 180°
2026-04-24 22:11 39.23037 -104.39659 14026 ft 359 kts 196°
2026-04-24 22:11 39.20763 -104.40752 13478 ft 339 kts 212°
2026-04-24 22:12 39.18900 -104.42435 12995 ft 318 kts 225°
2026-04-24 22:12 39.17446 -104.44471 12563 ft 302 kts 232°
2026-04-24 22:12 39.16105 -104.46510 12147 ft 298 kts 232°
2026-04-24 22:12 39.14772 -104.48538 11726 ft 296 kts 232°
2026-04-24 22:13 39.13439 -104.50567 11310 ft 296 kts 232°
2026-04-24 22:13 39.12117 -104.52580 11105 ft 288 kts 233°
2026-04-24 22:13 39.10853 -104.54503 11011 ft 276 kts 230°
2026-04-24 22:13 39.09636 -104.56358 10906 ft 266 kts 230°
2026-04-24 22:14 39.08465 -104.58141 10811 ft 257 kts 230°
2026-04-24 22:14 39.07331 -104.59865 10697 ft 248 kts 230°
2026-04-24 22:14 39.06232 -104.61533 10593 ft 240 kts 230°
2026-04-24 22:14 39.05188 -104.63119 10496 ft 231 kts 230°
2026-04-24 22:15 39.04164 -104.64674 10394 ft 224 kts 229°
2026-04-24 22:15 39.03172 -104.66179 10285 ft 215 kts 230°
2026-04-24 22:15 39.02154 -104.67552 10129 ft 212 kts 217°
2026-04-24 22:15 39.00833 -104.68389 9927 ft 215 kts 196°
2026-04-24 22:16 38.99331 -104.68553 9695 ft 219 kts 186°
2026-04-24 22:16 38.97801 -104.68550 9394 ft 220 kts 182°
2026-04-24 22:16 38.96265 -104.68549 9101 ft 222 kts 184°
2026-04-24 22:16 38.94724 -104.68550 8811 ft 220 kts 183°
2026-04-24 22:17 38.93201 -104.68553 8522 ft 218 kts 183°
2026-04-24 22:17 38.91700 -104.68555 8233 ft 210 kts 183°
2026-04-24 22:17 38.90303 -104.68556 7998 ft 193 kts 185°
2026-04-24 22:17 38.89006 -104.68557 7745 ft 182 kts 184°
2026-04-24 22:18 38.87801 -104.68558 7558 ft 164 kts 182°
2026-04-24 22:18 38.86725 -104.68561 7294 ft 147 kts 182°
2026-04-24 22:18 38.85724 -104.68564 7102 ft 142 kts 184°
2026-04-24 22:18 38.84745 -104.68566 6921 ft 142 kts 183°
2026-04-24 22:19 38.83771 -104.68568 6619 ft 140 kts 181°
2026-04-24 22:19 38.82809 -104.68565 6446 ft 136 kts 181°
2026-04-24 22:19 38.81880 -104.68572 6256 ft 132 kts 180°
2026-04-24 22:19 38.81003 -104.68577 6167 ft 111 kts 180°
2026-04-24 22:20 38.80389 -104.68576 6153 ft 64 kts 180°
2026-04-24 22:20 38.80057 -104.68576 6148 ft 40 kts 180°
2026-04-24 22:20 38.79787 -104.68579 6144 ft 36 kts 180°
2026-04-24 22:20 38.79554 -104.68579 6140 ft 31 kts 180°
2026-04-24 22:21 38.79345 -104.68595 6137 ft 29 kts 190°
2026-04-24 22:21 38.79162 -104.68685 6134 ft 28 kts 206°
2026-04-24 22:21 38.79162 -104.68785 6133 ft 13 kts 339°
2026-04-24 22:21 38.79254 -104.68790 6135 ft 14 kts 359°
2026-04-24 22:22 38.79366 -104.68791 6137 ft 17 kts 359°
2026-04-24 22:22 38.79484 -104.68788 6139 ft 17 kts 358°
2026-04-24 22:22 38.79597 -104.68788 6140 ft 16 kts
2026-04-24 22:22 38.79710 -104.68788 6142 ft 16 kts 360°
2026-04-24 22:23 38.79835 -104.68789 6144 ft 23 kts
2026-04-24 22:23 38.80036 -104.68788 6148 ft 35 kts
2026-04-24 22:23 38.80257 -104.68796 6151 ft 17 kts 336°
2026-04-24 22:23 38.80278 -104.68931 6151 ft 19 kts 270°
2026-04-24 22:24 38.80296 -104.69141 6152 ft 28 kts 290°
2026-04-24 22:24 38.80368 -104.69325 6153 ft 8 kts 253°
2026-04-24 22:24 38.80361 -104.69404 6153 ft 11 kts 268°
2026-04-24 22:24 38.80362 -104.69539 6153 ft 19 kts 271°
2026-04-24 22:25 38.80347 -104.69712 6153 ft 15 kts 227°
2026-04-24 22:25 38.80247 -104.69724 6151 ft 16 kts 179°
2026-04-24 22:25 38.80122 -104.69726 6149 ft 20 kts 180°
2026-04-24 22:25 38.80076 -104.69813 6148 ft 13 kts 270°
2026-04-24 22:26 38.80059 -104.69916 6148 ft 10 kts 208°
2026-04-24 22:26 38.79987 -104.69923 6146 ft 12 kts 181°
2026-04-24 22:26 38.79933 -104.69940 6145 ft 6 kts 249°
2026-04-24 22:26 38.79932 -104.69978 6145 ft 2 kts 267°
2026-04-24 22:27 38.79931 -104.70002 6145 ft 3 kts 267°
2026-04-24 22:27 38.79931 -104.70023 6145 ft 0 kts 268°